Location: Dzierzno
(50.6159°N, 19.2852°E)
Time: 07:36:50
(UTC+00:00)

Cosmos 1812 - Pass Details

Date: 18 November 2025
Orbit: 342 x 352 km, 82.5° (Epoch: 06 December)

Event Time Altitude Azimuth Distance (km) Brightness Sun altitude
Rises 16:25:33 0° 183° (S) 2,215 6.1 -14.5°
Reaches altitude 10° 16:27:31 10° 180° (S) 1,366 5.0 -14.8°
Maximum altitude 16:30:28 66° 98° (E) 407 1.9 -15.2°
Enters shadow 16:32:01 24° 21° (NNE) 806 3.4 -15.5°
